Location: Baia Mare
(47.6567°N, 23.5850°E)
Time: 22:37:03
(UTC+03:00)

ISS - Pass Details

Date: 06 September 2019
Orbit: 411 x 421 km, 51.6° (Epoch: 19 September)

Event Time Altitude Azimuth Distance (km) Brightness Sun altitude
Exits shadow 05:42:32 12° 290° (WNW) 1,389 -1.5 -11.7°
Maximum altitude 05:45:27 39° 0° (N) 635 -2.7 -11.2°
Drops below altitude 10° 05:48:38 10° 72° (ENE) 1,496 0.6 -10.7°
Sets 05:50:49 0° 80° (E) 2,362 2.0 -10.4°
